Hourly Data Report for October 03, 2017

All times are specified in Local Standard Time (LST). Add 1 hour to adjust for Daylight Saving Time where and when it is observed.

NORMAN WELLS A
NORTHWEST TERRITORIES

65°16'53.000" N
126°47'55.000" W
72.50 m
2202801
71043
YVQ

Download Data

Hourly Data (October 2017)
Hourly Data Report for October 3, 2017
Temp Definition
°C
Dew Point Temp Definition
°C
Rel Hum Definition
%
Wind Dir Definition
10's deg

Wind Spd Definition
km/h
Visibility Definition
km
Stn Press Definition
kPa
Hmdx Definition


Wind Chill Definition


Weather Definition


TIME
00:00 Legend Double Dagger 4.5 1.1 78 32 5 48.3 100.45     LegendNANA
01:00 Legend Double Dagger 4.2 0.8 79 31 7 48.3 100.51     LegendNANA
02:00 Legend Double Dagger 4.2 1.3 82 29 9 24.1 100.48     Rain
03:00 Legend Double Dagger 3.7 2.1 89 32 6 24.1 100.51     Rain
04:00 Legend Double Dagger 3.7 2.8 94 27 7 16.1 100.54     Rain
05:00 Legend Double Dagger 3.2 2.7 96 30 5 24.1 100.60     Rain
06:00 Legend Double Dagger 2.9 2.4 96 28 7 24.1 100.66     Rain
07:00 Legend Double Dagger 2.9 2.4 96 29 7 24.1 100.69     Rain
08:00 Legend Double Dagger 2.8 2.4 97 27 9 32.2 100.73     Rain
09:00 Legend Double Dagger 2.7 2.2 97 1 4 48.3 100.78     LegendNANA
10:00 Legend Double Dagger 3.0 2.3 95 36 1 48.3 100.84     Rain
11:00 Legend Double Dagger 3.7 3.1 96 2 5 32.2 100.86     Cloudy
12:00 Legend Double Dagger 4.5 3.8 95 35 3 32.2 100.88     Rain
13:00 Legend Double Dagger 4.8 3.4 91 36 1 32.2 100.94     Rain
14:00 Legend Double Dagger 5.0 3.8 92 11 7 48.3 100.96     Rain
15:00 Legend Double Dagger 5.2 3.7 90 13 16 48.3 101.01     Rain
16:00 Legend Double Dagger 5.2 3.8 91 7 10 48.3 101.02     LegendNANA
17:00 Legend Double Dagger 5.6 3.9 89 12 11 48.3 101.04     Mostly Cloudy
18:00 Legend Double Dagger 4.8 3.6 92 11 11 48.3 101.04     LegendNANA
19:00 Legend Double Dagger 4.6 3.3 92 10 7 48.3 101.06     LegendNANA
20:00 Legend Double Dagger 3.2 2.5 95 10 10 48.3 101.03     Mostly Cloudy
21:00 Legend Double Dagger 2.1 1.7 98 8 8 48.3 101.02     LegendNANA
22:00 Legend Double Dagger 2.2 1.3 93 11 7 48.3 101.01     LegendNANA
23:00 Legend Double Dagger 1.4 1.0 97 13 10 48.3 100.99     Mostly Cloudy

Notes on Data Quality.

Legend

  • E = Estimated
  • M = Missing
  • NA = Not Available
  • ‡ = Partner data that is not subject to review by the National Climate Archives
Date modified: